{"data":{"norad_id":27711,"epoch":"2026-09-19T15:58:57.006048Z","epoch_age_seconds":86736,"freshness":"FRESH","line1":"1 27711U 03012A   26262.66593757 -.00000195  00000+0  00000+0 0  9994","line2":"2 27711  12.4778  28.1950 0096602  12.3575 349.9816  1.00271201 33909","mean_motion":1.00271201,"eccentricity":0.0096602,"inclination_deg":12.4778,"raan_deg":28.195,"arg_perigee_deg":12.3575,"mean_anomaly_deg":349.9816,"bstar":0,"rev_number":3390,"period_min":1436.1052681517,"perigee_km":35379.437353153,"apogee_km":36194.080003617,"semimajor_km":42164.895678385,"source":"CELESTRAK","updated_at":"2026-09-20T09:00:35.121215Z"}}